GW5002 Weather Reports


time (UTC)temp
C
wind
direction
speed
KPH
gust
KPH
rain 1hr
cm
rain 24hr
cm
rain mn
cm
humidity
%
barometer
mb
20260906113041 -17 0.0 0.0 0.00 0.00 0.00 1011.0
20260906111538 -17 0.0 0.0 0.00 0.00 0.00 1010.9
20260906110032 -17 0.0 0.0 0.00 0.00 0.00 1010.8
20260906104535 -17 0.0 0.0 0.00 0.00 0.00 1010.5
20260906103036 -17 0.0 0.0 0.00 0.00 0.00 1010.5
20260906101536 -17 0.0 0.0 0.00 0.00 0.00 1010.4
20260906100035 -17 0.0 0.0 0.00 0.00 0.00 1010.1
20260906094533 -17 0.0 0.0 0.00 0.00 0.00 1010.2
20260906093047 -17 0.0 0.0 0.00 0.00 0.00 1009.8
20260906091535 -17 0.0 0.0 0.00 0.00 0.00 1009.9
20260906084541 -17 0.0 0.0 0.00 0.00 0.00 1009.8
20260906083041 -17 0.0 0.0 0.00 0.00 0.00 1009.5
20260906081535 -17 0.0 0.0 0.00 0.00 0.00 1009.8
20260906080034 -17 0.0 0.0 0.00 0.00 0.00 1010.0
20260906074548 -17 0.0 0.0 0.00 0.00 0.00 1009.9
20260906073038 -17 0.0 0.0 0.00 0.00 0.00 1009.9
20260906071535 -17 0.0 0.0 0.00 0.00 0.00 1010.3
20260906070008 25 0.0 0.0 0.00 0.00 0.00 85 1010.3
20260906064517 25 0.0 0.0 0.00 0.00 0.00 85 1010.6
20260906063003 26 0.0 0.0 0.00 0.00 0.00 84 1010.7
20260906061505 26 0.0 0.0 0.00 0.00 0.00 83 1010.7
20260906060009 26 0.0 0.0 0.00 0.00 0.00 83 1010.7
20260906054514 26 0.0 0.0 0.00 0.00 0.00 82 1010.7
20260906053020 26 0.0 0.0 0.00 0.00 0.00 82 1010.9
20260906051505 26 0.0 0.0 0.00 0.00 0.00 85 1010.9
20260906050008 27 0.0 0.0 0.00 0.00 0.00 86 1011.0
20260906044510 27 0.0 0.0 0.00 0.00 0.00 86 1011.2
20260906043016 27 0.0 0.0 0.00 0.00 0.00 86 1011.4
20260906041535 27 0.0 0.0 0.00 0.00 0.00 89 1011.4
20260906040007 28 0.0 0.0 0.00 0.00 0.00 90 1011.0
20260906034514 28 0.0 0.0 0.00 0.00 0.00 90 1011.1
20260906033015 28 0.0 0.0 0.00 0.00 0.00 90 1011.0
20260906031521 28 0.0 0.0 0.00 0.00 0.00 90 1011.1
20260906030034 28 0.0 0.0 0.00 0.00 0.00 89 1011.0
20260906024508 28 0.0 0.0 0.00 0.00 0.00 89 1011.1
20260906023014 28 0.0 0.0 0.00 0.00 0.00 89 1010.6
20260906021518 28 0.0 0.0 0.00 0.00 0.00 89 1011.1
20260906020025 28 0.0 0.0 0.00 0.00 0.00 89 1010.8
20260906014542 28 0.0 0.0 0.00 0.00 0.00 88 1009.0
20260906013008 28 0.0 0.0 0.00 0.00 0.00 87 1009.6
20260906011517 28 0.0 0.0 0.00 0.00 0.00 87 1010.0
20260906010053 28 0.0 0.0 0.00 0.00 0.00 87 1010.4
20260906004527 28 0.0 0.0 0.00 0.00 0.00 86 1010.6
20260906003039 28 0.0 0.0 0.00 0.00 0.00 85 1010.9
20260906001513 28 0.0 0.0 0.00 0.00 0.00 85 1011.0
20260906000023 28 0.0 0.0 0.00 0.00 0.00 84 1011.0
20260905234506 28 0.0 0.0 0.00 0.00 0.00 83 1011.1
20260905233007 29 0.0 0.0 0.00 0.00 0.00 83 1011.0
20260905231510 29 0.0 0.0 0.00 0.00 0.00 81 1011.1
20260905230021 30 0.0 0.0 0.00 0.00 0.00 79 1010.9
20260905224535 30 0.0 0.0 0.00 0.00 0.00 79 1010.9
20260905223016 31 0.0 0.0 0.00 0.00 0.00 77 1010.6
20260905221536 31 0.0 0.0 0.00 0.00 0.00 77 1010.7
20260905220025 31 0.0 0.0 0.00 0.00 0.00 76 1010.7
20260905214523 31 0.0 0.0 0.00 0.00 0.00 76 1010.5
20260905213029 31 0.0 0.0 0.00 0.00 0.00 75 1010.6
20260905211525 31 0.0 0.0 0.00 0.00 0.00 75 1010.3
20260905210016 32 0.0 0.0 0.00 0.00 0.00 73 1010.2
20260905204525 32 0.0 0.0 0.00 0.00 0.00 73 1010.1
20260905203039 33 0.0 0.0 0.00 0.00 0.00 71 1009.8
20260905201550 33 0.0 0.0 0.00 0.00 0.00 71 1009.7
20260905200015 33 0.0 0.0 0.00 0.00 0.00 70 1009.7
20260905194519 33 0.0 0.0 0.00 0.00 0.00 71 1010.0
20260905193032 33 0.0 0.0 0.00 0.00 0.00 71 1010.2
20260905191532 32 0.0 0.0 0.00 0.00 0.00 70 1010.6
20260905190033 32 0.0 0.0 0.00 0.00 0.00 71 1010.8
20260905184515 33 0.0 0.0 0.00 0.00 0.00 66 1011.1
20260905183034 33 0.0 0.0 0.00 0.00 0.00 64 1011.3
20260905181527 33 0.0 0.0 0.00 0.00 0.00 64 1011.3
20260905180032 32 0.0 0.0 0.00 0.00 0.00 69 1011.4
20260905174515 32 0.0 0.0 0.00 0.00 0.00 66 1011.7
20260905173023 32 0.0 0.0 0.00 0.00 0.00 67 1012.1
20260905171528 32 0.0 0.0 0.00 0.00 0.00 68 1012.3
20260905170031 32 0.0 0.0 0.00 0.00 0.00 67 1012.5
20260905164534 32 0.0 0.0 0.00 0.00 0.00 68 1012.7
20260905163025 32 0.0 0.0 0.00 0.00 0.00 68 1013.1
20260905161527 32 0.0 0.0 0.00 0.00 0.00 69 1013.3
20260905160031 32 0.0 0.0 0.00 0.00 0.00 68 1013.5
20260905154531 32 0.0 0.0 0.00 0.00 0.00 72 1013.6
20260905153034 31 0.0 0.0 0.00 0.00 0.00 71 1013.8
20260905151534 31 0.0 0.0 0.00 0.00 0.00 75 1013.8
20260905150027 30 0.0 0.0 0.00 0.00 0.00 76 1013.9
20260905144536 30 0.0 0.0 0.00 0.00 0.00 78 1013.8
20260905143008 30 0.0 0.0 0.00 0.00 0.00 79 1013.9
20260905141504 30 0.0 0.0 0.00 0.00 0.00 80 1013.9
20260905140004 29 0.0 0.0 0.00 0.00 0.00 80 1014.0
20260905134508 28 0.0 0.0 0.00 0.00 0.00 83 1013.9
20260905133008 28 0.0 0.0 0.00 0.00 0.00 84 1014.1
20260905131513 28 0.0 0.0 0.00 0.00 0.00 86 1014.1
20260905130004 27 0.0 0.0 0.00 0.00 0.00 88 1014.0
20260905124514 -17 0.0 0.0 0.00 0.00 0.00 1014.1
20260905123011 -17 0.0 0.0 0.00 0.00 0.00 1014.0
20260905121512 -17 0.0 0.0 0.00 0.00 0.00 1013.9
20260905120012 -17 0.0 0.0 0.00 0.00 0.00 1013.8
20260905114512 -17 0.0 0.0 0.00 0.00 0.00 1013.8